www.pogodaiklimat.ru

Погода и климат >> Архив погоды >> Россия >> Ростовская область >> Казанская


ПОГОДА в Казанской

  • Прогноз погоды в Казанской
  • Монитор погоды в Казанской

АРХИВ ПОГОДЫ в Казанской

Время (UTC), дата Ветер
(напр.,м/с)
 
Видим.   Явления Облачность Т
(С)
Тd
(С)
f
(%)
Тe
(С)
Тes
(С)
Комфортность P
(гПа)
Po
(гПа)
Тmin
(С)
Tmax
(С)
R
(мм)
R24
(мм)
S
(см)
18 11.08 СЗ 1 20 км 6/0
[Ac trans]
+16.9 +10.3 65 +18 +18 1014.7 1006.3
21 11.08 штиль 0 20 км 10/0
[Ac As]
+15.3 +13.6 90 +15 +15 1015.2 1006.7
00 12.08 штиль 0 20 км 9/0
[Ac trans]
+14.9 +13.0 88 +15 +15 1015.5 1007.1
03 12.08 СЗ 1 20 км ясно +12.8 +12.2 96 +13 +13 1016.5 1008.0 +12.7
06 12.08 З 2 20 км 4/0
[Cc]
+19.5 +11.1 58 +21 +29 комфорт 1017.1 1008.7
09 12.08 СЗ 4 20 км 4/4 1000 м
[Cu hum]
+23.4 +6.5 34 +24 +30 комфорт 1017.5 1009.2
12 12.08 С 3 20 км ясно +25.0 +5.6 29 +25 +33 комфорт 1017.1 1008.9
15 12.08 СЗ 4 20 км 3/0
[Ci fib]
+24.3 +3.3 25 +24 +24 комфорт 1017.4 1009.2 +25.4
18 12.08 штиль 0 20 км ясно +15.5 +12.9 84 +15 +15 1018.3 1009.9
21 12.08 штиль 0 20 км ясно +12.9 +12.5 97 +12 +12 1019.0 1010.4
00 13.08 СЗ 1 20 км ясно +11.4 +11.1 98 +11 +11 1019.7 1011.1
03 13.08 штиль 0 20 км 8/0
[Ac trans Cc]
+10.9 +10.8 99 +10 +10 1020.1 1011.5 +10.3
06 13.08 Ю 1 20 км 4/0
[Ac trans]
+20.3 +12.3 60 +23 +30 комфорт 1019.8 1011.4
09 13.08 СЗ 2 20 км 3/3 1000 м
[Cu hum]
+26.3 +11.2 39 +27 +37 жарко 1018.3 1010.1
12 13.08 З 2 20 км 4/4 1000 м
[Cu med, cong]
+28.3 +10.0 32 +29 +34 жарко 1017.3 1009.3
15 13.08 штиль 0 20 км 4/0
[Ci fib]
+27.8 +12.8 40 +29 +31 жарко 1016.5 1008.4 +28.7
18 13.08 штиль 0 20 км ясно +18.6 +17.4 93 +20 +20 1017.1 1008.7
21 13.08 штиль 0 20 км ясно +17.1 +14.9 87 +17 +17 1017.1 1008.7
00 14.08 штиль 0 20 км ясно +15.0 +14.1 94 +15 +15 1016.8 1008.3
03 14.08 штиль 0 20 км ясно +14.7 +14.6 99 +14 +15 1016.9 1008.4 +14.4
06 14.08 З 3 20 км ясно +25.9 +13.0 45 +28 +34 жарко 1016.4 1008.2
09 14.08 З 3 20 км ясно +29.5 +12.8 36 +31 +43 жарко 1015.5 1007.5
12 14.08 ЮЗ 3 20 км ясно +31.2 +13.2 33 +32 +40 жарко 1014.2 1006.2
15 14.08 штиль 0 20 км ясно +30.2 +17.1 45 +34 +35 очень
душно
1013.7 1005.6 +31.4
18 14.08 штиль 0 20 км ясно +24.8 +17.3 63 +29 +29 душно 1013.5 1005.2 +31.4
21 14.08 штиль 0 20 км ясно +19.6 +18.3 92 +22 +22 комфорт 1013.8 1005.4
00 15.08 штиль 0 20 км ясно +18.0 +16.3 90 +18 +18 1013.6 1005.2
03 15.08 В 1 20 км ясно +16.7 +15.5 93 +18 +18 1014.0 1005.5 +16.6
06 15.08 ЮВ 1 20 км ясно +25.0 +17.3 62 +29 +38 душно 1014.4 1006.1
09 15.08 ЮВ 2 20 км ясно +30.6 +13.9 36 +32 +46 жарко 1013.4 1005.3
12 15.08 В 3 20 км ясно +33.0 +14.5 33 +35 +42 душно 1011.6 1003.6
15 15.08 ЮВ 1 20 км 3/0
[Ci fib]
+32.0 +16.9 40 +35 +36 очень
душно
1010.3 1002.3 +33.7
18 15.08 штиль 0 20 км 10/0
[Ac lent Cs]
+23.5 +20.6 84 +29 +29 душно 1011.0 1002.7
21 15.08 штиль 0 20 км 10/0
[Cs]
+20.5 +18.9 91 +24 +24 комфорт 1010.7 1002.4
00 16.08 штиль 0 20 км 10/0
[Cs]
+17.2 +16.2 94 +17 +17 1011.1 1002.6
03 16.08 ЮВ 2 20 км 10/0
[Ac cast Cs]
+18.4 +14.8 80 +19 +20 1010.9 1002.4 +17.0
06 16.08 ЮВ 2 20 км 10/0
[Cs]
+24.8 +13.4 49 +27 +33 жарко 1010.4 1002.2
09 16.08 ЮВ 3 20 км 10/4 600 м
[Cb cap Cs]
+27.0 +12.4 40 +28 +34 жарко 1009.1 1000.9
12 16.08 ЮВ 1 20 км 10/4 600 м
[Cb cap Ac As]
+25.6 +15.6 54 +29 +31 душно 1008.4 1000.2
15 16.08 ЮВ 1 20 км 10/4 600 м
[Cb cap Ac As]
+24.4 +17.7 66 +28 +29 душно 1007.6 999.3 +27.3
18 16.08 ЮВ 1 20 км 10/0
[Ac As]
+21.4 +19.0 86 +26 +26 душно 1007.4 999.1
21 16.08 В 1 20 км 9/0
[Ac trans]
+20.3 +18.4 89 +25 +25 комфорт 1007.3 999.0
00 17.08 штиль 0 20 км 9/0
[Ac trans]
+20.0 +16.9 82 +22 +22 комфорт 1007.6 999.3
03 17.08 В 1 20 км 10/8 600 м
[Cb cap Ac As]
+19.6 +17.5 88 +23 +23 комфорт 1008.0 919.7 +19.5
06 17.08 ЮВ 1 20 км {ливн. осадки} 9/6 600 м
[Cb cap Ac trans]
+21.1 +17.7 81 +25 +27 комфорт 1008.6 1000.3
09 17.08 В 1 20 км 10/5 600 м
[Cb cap Ac As]
+25.4 +13.3 47 +27 +30 жарко 1008.0 999.8
12 17.08 штиль 0 20 км 9/6 600 м
[Cb cap Ac trans]
+22.8 +16.6 68 1008.5
15 17.08 штиль 0 20 км 4/3 1000 м
[Sc diur, vesp Ac trans]
+24.3 +15.8 59 +27 +28 жарко 1007.8 999.5 +27.0 0.5
18 17.08 штиль 0 20 км ясно +19.8 +17.7 88 +22 +22 комфорт 1008.8 1000.5
21 17.08 штиль 0 20 км ясно +18.0 +16.8 93 +18 +18 1009.6 1001.1
00 18.08 штиль 0 4000 м дымка ясно +16.5 +15.8 96 +16 +16 1010.2 1001.7
03 18.08 штиль 0 4000 м дымка 8/0
[Cc]
+15.4 +14.9 97 +15 +15 1010.6 1002.1 +15.3
06 18.08 ЮВ 2 20 км 10/0
[Cs]
+22.3 +18.5 79 +28 +33 душно 1010.8 1002.5
09 18.08 ЮВ 2 20 км 10/6
[Cu med, cong Cs]
+27.4 +18.9 60 +33 +37 очень
душно
1010.5 1002.3
12 18.08 ЮВ 2 20 км 10/8 600 м
[Cb cap Ac As]
+28.4 +19.3 58 +34 +35 очень
душно
1010.6 1002.4

 

Местоположение метеостанции Казанская (Ростовская область, Россия): широта 49.80 долгота 41.15 высота над уровнем моря 72 м.

В архиве по умолчанию представлена погода в Казанской за последнюю неделю. Архивные данные за месяц целиком и за предыдущие месяцы, начиная с января 2011 года, Вы можете получить, выбрав интересующий диапазон дат из раскрывающегося списка и нажав кнопку "Ввод!".


*Определитесь, кто Вы:
робот инопланетянин человек

Внимание! Время в таблицах - всемирное. Для получения местного времени необходимо прибавить поправку, которая равна 3 ч.

Смотрите также архив погоды в соседних городах и на ближайших метеорологических станциях:

Погода в Богучаре (Воронежская область, Россия) (44 км)
Погода в Калаче (Воронежская область, Россия) (69 км)
Погода в Боковской (Ростовская область, Россия) (81 км)
Погода в Чертково (Ростовская область, Россия) (85 км)
Погода в Павловск (Воронежская область, Россия) (85 км)
Погода в Миллерово (Ростовская область, Россия) (112 км)
Погода в Серафимовиче (Волгоградская область, Россия) (117 км)
Погода в Урюпинске (Волгоградская область, Россия) (127 км)
Погода в Беловодске (Луганская область, Украина) (130 км)
Погода в Новоаннинском (Волгоградская область, Россия) (136 км)

Пояснения к столбцам:

Ветер - указаны скорость ветра в м/с - средняя за 10 мин, порывы в срок и между сроками (в фигурных скобках) и направление, откуда дует ветер: С - северный, СВ - северо-восточный, В - восточный, ЮВ - юго-восточный, Ю - южный, ЮЗ - юго-западный, З - западный, СЗ - северо-западный.
Видимость - горизонтальная дальность видимости в метрах или километрах. При видимости от 1 до 10 км при отсутствии осадков обычно наблюдается дымка, при ухудшении видимости до 1 км и менее - туман. В сухую погоду видимость может ухудшаться дымом, пылью или мглою.
Явления - указаны атмосферные явления, наблюдавшиеся в срок или в последний час перед сроком; фигурными скобками обозначены явления, наблюдавшиеся между сроками (за 1-3 часа до срока); квадратными скобками обозначены град или гололедные отложения с указанием их диаметра в мм.
Облачность - указаны через наклонную черту общая и нижняя облачность в баллах и высота нижней границы облаков в метрах; квадратными скобками обозначены формы облаков: Ci - перистые, Cs - перисто-слоистые, Cc - перисто-кучевые, Ac - высококучевые, As - высокослоистые, Sc - слоисто-кучевые, Ns - слоисто-дождевые, Cu - кучевые, Cb - кучево-дождевые. Подробнее классификацию облаков см. в Атласе облаков (PDF).
T - Температура воздуха - температура, измеренная на высоте 2 м над землей.
Td - Температура точки росы - температура, при понижении до которой содержащийся в воздухе водяной пар достигнет насыщения.
f - Относительная влажность воздуха - влажноcть воздуха, измеренная на высоте 2 м над землей.
Te - Эффективная температура - температура, которую ощущает одетый по сезону человек в тени. Характеристика душности погоды. При расчете учитывается влияние влажности воздуха и скорости ветра на теплоощущения человека.
Tes - Эффективная температура на солнце - температура, которую ощущает человек, с поправкой на солнечный нагрев. Характеристика знойности погоды. Зависит от высоты солнца над горизонтом, облачности и скорости ветра. Ночью, в пасмурную погоду, а также при ветре 12 м/с и более поправка равна нулю.
P - Атмосферное давление - приведенное к уровню моря атмосферное давление.
Po - Атмосферное давление - измеренное на уровне метеостанции атмосферное давление.
Tmin - Минимальная температура - минимум температуры воздуха на высоте 2 м над землей.
Tmax - Максимальная температура - максимум температуры воздуха на высоте 2 м над землей.
R - Количество осадков - Количество выпавших осадков за период времени, мм. При наведении курсора мыши на число - период времени, за который выпало указанное количество осадков.
R24 - Количество осадков - Количество выпавших осадков за 24 часа, мм.
S - Снежный покров - Высота снежного покрова, см. При наведении курсора мыши на число - состояние снежного покрова и степень покрытия местности в баллах.